This demonstration page uses our WeatherBlox Daily Observations layout. Learn more.

Hourly Observations for June 26, 2018

Temp ( °F °C ) Dew Point ( °F °C ) Humidity (%) Winds ( mph kmh ) Pressure ( in mb ) Visibility ( mi km ) Precip ( " mm )
12:15 am 00:15 Partly Cloudy 63 17.3 63 17.1 99 99 W 7 11 29.88 1012 10 16.0934 0 0
12:35 am 00:35 Mostly Cloudy with Light Drizzle 63 17.2 63 17 99 99 W 6 9 29.88 1012 10 16.0934 0 0
12:55 am 00:55 Partly Cloudy 63 17.2 63 17 99 99 W 8 13 29.88 1012 10 16.0934 0 0
1:15 am 01:15 Clear 63 17.2 63 17 99 99 W 8 13 29.85 1011 10 16.0934 0 0
1:35 am 01:35 Partly Cloudy 63 17.2 63 17 99 99 W 8 13 29.85 1011 10 16.0934 0 0
1:55 am 01:55 Partly Cloudy 63 17 62 16.6 98 98 W 9 15 29.85 1011 10 16.0934 0 0
2:15 am 02:15 Clear 62 16.7 62 16.5 99 99 W 8 13 29.85 1011 10 16.0934 0 0
2:35 am 02:35 Clear 62 16.5 61 16.2 98 98 W 7 11 29.85 1011 10 16.0934 0 0
2:55 am 02:55 Clear 61 16.3 61 16.1 99 99 WNW 7 11 29.85 1011 10 16.0934 0 0
3:15 am 03:15 Clear 61 16.1 61 16 99 99 WNW 6 9 29.85 1011 10 16.0934 0 0
3:35 am 03:35 Clear 61 16 60 15.8 99 99 WNW 7 11 29.85 1011 10 16.0934 0 0
3:55 am 03:55 Clear 61 15.9 60 15.7 99 99 WNW 9 15 29.85 1011 10 16.0934 0 0
4:15 am 04:15 Clear 60 15.7 60 15.5 99 99 WNW 8 13 29.85 1011 10 16.0934 0 0
4:35 am 04:35 Clear 60 15.7 60 15.5 99 99 NW 7 11 29.85 1011 10 16.0934 0 0
4:55 am 04:55 Clear 59 15.2 59 15.1 99 99 NW 5 7 29.85 1011 10 16.0934 0 0
5:15 am 05:15 Clear 59 15 59 15 100 100 W 6 9 29.88 1012 10 16.0934 0 0
5:35 am 05:35 Clear 59 15.1 59 15.1 100 100 W 6 9 29.85 1011 10 16.0934 0 0
5:55 am 05:55 Clear 59 15 59 14.9 99 99 W 6 9 29.88 1012 10 16.0934 0 0
6:15 am 06:15 Sunny 59 14.9 59 14.9 100 100 W 3 6 29.88 1012 10 16.0934 0 0
6:35 am 06:35 Sunny 58 14.6 58 14.5 99 99 WSW 6 9 29.91 1013 10 16.0934 0 0
6:55 am 06:55 Sunny 59 15 59 15 100 100 W 7 11 29.91 1013 10 16.0934 0 0
7:15 am 07:15 Sunny 60 15.8 60 15.4 97 97 W 8 13 29.88 1012 10 16.0934 0 0
7:35 am 07:35 Sunny 62 16.8 61 16 95 95 WNW 7 11 29.88 1012 10 16.0934 0 0
7:55 am 07:55 Sunny 63 17.4 62 16.4 94 94 NW 5 7 29.88 1012 10 16.0934 0 0
8:15 am 08:15 Sunny 65 18.1 62 16.7 92 92 NW 5 7 29.88 1012 10 16.0934 0 0
8:35 am 08:35 Sunny 66 18.9 63 17.2 90 90 N 8 13 29.83 1010 10 16.0934 0 0
8:55 am 08:55 Sunny 68 19.8 62 16.9 83 83 N 8 13 29.83 1010 10 16.0934 0 0
9:15 am 09:15 Sunny 69 20.8 62 16.8 78 78 N 10 17 29.83 1010 10 16.0934 0 0
9:35 am 09:35 Sunny 70 21.1 63 17.3 79 79 N 12 19 29.83 1010 10 16.0934 0 0
9:55 am 09:55 Sunny 71 21.9 62 16.6 72 72 N 10 17 29.83 1010 10 16.0934 0 0
10:15 am 10:15 Sunny 73 22.5 62 16.4 69 69 N 9 15 29.8 1009 10 16.0934 0 0
10:35 am 10:35 Sunny 73 22.8 62 16.7 69 69 NNE 10 17 29.8 1009 10 16.0934 0 0
10:55 am 10:55 Sunny 74 23.3 63 17.2 69 69 NE 6 9 29.8 1009 10 16.0934 0 0
11:15 am 11:15 Sunny 74 23.5 62 16.8 66 66 N 3 6 29.8 1009 10 16.0934 0 0
11:35 am 11:35 Sunny 75 23.7 62 16.5 64 64 ESE 3 6 29.83 1010 10 16.0934 0 0
11:55 am 11:55 Sunny 75 24 62 16.5 63 63 E 3 6 29.83 1010 10 16.0934 0 0
12:15 pm 12:15 Sunny 76 24.4 62 16.7 62 62 E 5 7 29.83 1010 10 16.0934 0 0
12:35 pm 12:35 Sunny 76 24.6 61 16.2 60 60 ESE 5 7 29.83 1010 10 16.0934 0 0
12:55 pm 12:55 Sunny 77 25 62 16.4 59 59 SE 6 9 29.83 1010 10 16.0934 0 0
1:15 pm 13:15 Sunny 78 25.5 61 16.3 57 57 ESE 3 6 29.83 1010 10 16.0934 0 0
1:35 pm 13:35 Sunny 78 25.5 63 17 59 59 SE 6 9 29.8 1009 10 16.0934 0 0
1:55 pm 13:55 Sunny 79 25.9 62 16.8 57 57 SE 5 7 29.77 1008 10 16.0934 0 0
2:15 pm 14:15 Hazy 79 26.2 62 16.5 55 55 E 5 7 29.77 1008 4 6.43736 0 0
2:35 pm 14:35 Sunny 80 26.4 63 17 56 56 SSE 5 7 29.77 1008 10 16.0934 0 0
2:55 pm 14:55 Sunny 80 26.6 64 17.7 58 58 SE 6 9 29.77 1008 10 16.0934 0 0
3:15 pm 15:15 Sunny 80 26.6 62 16.7 55 55 S 3 6 29.77 1008 10 16.0934 0 0
3:35 pm 15:35 Sunny 80 26.8 61 16.2 52 52 Calm 29.74 1007 10 16.0934 0 0
3:55 pm 15:55 Sunny 81 27 62 16.6 53 53 Calm 29.74 1007 10 16.0934 0 0
4:15 pm 16:15 Sunny 81 27.4 61 16.3 51 51 Calm 29.74 1007 10 16.0934 0 0
4:35 pm 16:35 Sunny 82 27.6 62 16.9 52 52 Calm 29.74 1007 10 16.0934 0 0
4:55 pm 16:55 Sunny 82 28 65 18.1 55 55 Calm 29.74 1007 10 16.0934 0 0
5:15 pm 17:15 Sunny 83 28.1 64 18 54 54 SSE 3 6 29.74 1007 10 16.0934 0 0
5:35 pm 17:35 Sunny 82 28 64 17.6 53 53 Calm 29.74 1007 10 16.0934 0 0
5:55 pm 17:55 Sunny 83 28.1 64 17.6 53 53 S 3 6 29.74 1007 10 16.0934 0 0
6:15 pm 18:15 Sunny 83 28.1 63 17.3 52 52 S 3 6 29.74 1007 10 16.0934 0 0
6:35 pm 18:35 Sunny 83 28.3 64 17.7 53 53 S 5 7 29.74 1007 10 16.0934 0 0
6:55 pm 18:55 Sunny 83 28.1 64 17.6 53 53 S 3 6 29.74 1007 10 16.0934 0 0
7:15 pm 19:15 Sunny 82 28 64 18 55 55 SE 5 7 29.74 1007 10 16.0934 0 0
7:35 pm 19:35 Sunny 82 27.8 65 18.5 57 57 Calm 29.74 1007 10 16.0934 0 0
7:55 pm 19:55 Sunny 82 27.8 64 18 55 55 SSW 3 6 29.74 1007 10 16.0934 0 0
8:15 pm 20:15 Sunny 82 27.5 63 17.4 54 54 Calm 29.71 1006 10 16.0934 0 0
8:35 pm 20:35 Sunny 80 26.8 67 19.6 65 65 Calm 29.71 1006 10 16.0934 0 0
8:55 pm 20:55 Sunny 78 25.7 67 19.7 70 70 Calm 29.74 1007 10 16.0934 0 0
9:15 pm 21:15 Clear 74 23.6 70 21.1 86 86 ESE 6 9 29.77 1008 10 16.0934 0 0
9:35 pm 21:35 Clear 72 22.4 69 20.7 90 90 E 6 9 29.74 1007 10 16.0934 0 0
9:55 pm 21:55 Clear 71 21.5 68 20.1 92 92 E 9 15 29.77 1008 10 16.0934 0 0
10:15 pm 22:15 Clear 70 21.3 67 19.6 90 90 E 7 11 29.77 1008 10 16.0934 0 0
10:35 pm 22:35 Clear 69 20.7 67 19.3 92 92 ESE 7 11 29.8 1009 10 16.0934 0 0
10:55 pm 22:55 Clear 69 20.5 66 19 91 91 ESE 7 11 29.8 1009 10 16.0934 0 0
11:15 pm 23:15 Clear 69 20.3 66 19 92 92 ESE 6 9 29.8 1009 10 16.0934 0 0
11:35 pm 23:35 Clear 68 20 66 19 94 94 SE 6 9 29.8 1009 10 16.0934 0 0
11:55 pm 23:55 Clear 68 19.8 66 18.9 95 95 ESE 7 11 29.8 1009 10 16.0934 0 0

Powered by AerisWeather